SCP
0 0 0 0 0 0 0 0 0 0 0 0 0 0 0 0 0 0 0 0 0 0 0 0 0 0 0 0 0 0 0 0 0 0 0 0 0 0 0 0 0 0 0 0 0 0 0 0 0
0 0 0 0 0 0 0 0 0 0 0 0 0 0 0 0 0 0 0 0 0 0 0 0 0 0 0 0 0 0 0 0 0 0 0 0 0 0 0 0 0 0 0 0 0 0 0 0 0
0 0 0 0 0 0 0 0 0 0 0 0 0 0 0 0 0 0 0 0 0 0 0 0 0 0 0 0 0 0 0 0 0 0 0 0 0 0 0 0 0 0 0 0 0 0 0 0 0
0 0 0 0 0 0 0 0 0 0 0 0 0 0 0 0 0 0 0 0 0 0 0 0 0 0 0 0 0 0 0 0 0 0 0 0 0 0 0 0 0 0 0 0 0 0 0 0 0
0 0 0 0 0 0 0 0 0 0 0 0 0 0 0 0 0 0 0 0 0 0 0 0 0 0 0 0 0 0 0 0 0 0 0 0 0 0 0 0 0 0 0 0 0 0 0 0 0
0 0 0 0 0 0 0 0 0 0 0 0 0 0 0 0 0 0 0 0 0 0 0 0 0 0 0 0 0 0 0 0 0 0 0 0 0 0 0 0 0 0 0 0 0 0 0 0 0
0 0 0 0 0 0 0 0 0 0 0 0 0 0 0 0 0 0 0 0 0 0 0 0 0 0 0 0 0 0 0 0 0 0 0 0 0 0 0 0 0 0 0 0 0 0 0 0 0
0 0 0 0 0 0 0 0 0 0 0 0 0 0 0 0 0 0 0 0 0 0 0 0 0 0 0 0 0 0 0 0 0 0 0 0 0 0 0 0 0 0 0 0 0 0 0 0 0
0 0 0 0 0 0 0 0 0 0 0 0 0 0 0 0 0 0 0 0 0 0 0 0 0 0 0 0 0 0 0 0 0 0 0 0 0 0 0 0 0 0 0 0 0 0 0 0 0
0 0 0 0 0 0 0 0 0 0 0 0 0 0 0 0 0 0 0 0 0 0 0 0 0 0 0 0 0 0 0 0 0 0 0 0 0 0 0 0 0 0 0 0 0 0 0 0 0
0 0 0 0 0 0 0 0 0 0 0 0 0 0 0 0 0 0 0 0 0 0 0 0 0 0 0 0 0 0 0 0 0 0 0 0 0 0 0 0 0 0 0 0 0 0 0 0 0
0 0 0 0 0 0 0 0 0 0 0 0 0 0 0 0 0 0 0 0 0 0 0 0 0 0 0 0 0 0 0 0 0 0 0 0 0 0 0 0 0 0 0 0 0 0 0 0 0
0 0 0 0 0 0 0 0 0 0 0 0 0 0 0 0 0 0 0 0 0 0 0 0 0 0 0 0 0 0 0 0 0 0 0 0 0 0 0 0 0 0 0 0 0 0 0 0 0
0 0 0 0 0 0 0 0 0 0 0 0 0 0 0 0 0 0 0 0 0 0 0 0 0 0 0 0 0 0 0 0 0 0 0 0 0 0 0 0 0 0 0 0 0 0 0 0 0
0 0 0 0 0 0 0 0 0 0 0 0 0 0 1 1 0 0 0 0 0 0 0 0 0 0 0 0 0 0 0 0 0 0 0 0 0 0 0 0 0 0 0 0 0 0 0 0 0
0 0 0 0 0 0 0 0 0 0 0 0 0 1 1 1 0 0 0 0 0 0 0 0 0 0 0 0 0 0 0 0 0 0 0 0 0 0 0 0 0 0 0 0 0 0 0 0 0
0 0 0 0 0 0 0 0 0 0 0 0 0 1 1 1 0 0 0 0 0 0 0 0 0 0 0 0 0 0 0 0 0 0 0 0 0 0 0 0 0 0 0 0 0 0 0 0 0
0 0 0 0 0 0 0 0 0 0 0 0 0 0 1 0 0 0 0 0 0 0 0 0 0 0 0 0 0 0 0 0 0 0 0 0 0 0 0 0 0 0 0 0 0 0 0 0 0
0 0 0 0 0 0 0 0 0 0 0 0 0 0 0 0 0 0 0 0 0 0 0 0 0 0 0 0 0 0 0 0 0 0 0 0 0 0 0 0 0 0 0 0 0 0 0 0 0
0 0 0 0 0 0 0 0 0 0 0 0 0 0 0 0 0 0 0 0 0 0 0 0 0 0 0 0 0 0 0 0 0 0 0 0 0 0 0 0 0 0 0 0 0 0 0 0 0
0 0 0 0 0 0 0 0 0 0 0 0 0 0 0 0 0 0 0 0 0 0 0 0 0 0 0 0 0 0 0 0 0 0 0 0 0 0 0 0 0 0 0 0 0 0 0 0 0
0 0 0 0 0 0 0 0 0 0 0 0 0 0 0 0 0 0 0 0 0 0 0 0 0 0 0 0 0 0 0 0 0 0 0 0 0 0 0 0 0 0 0 0 0 0 0 0 0
0 0 0 0 0 0 0 0 0 0 0 0 0 0 0 0 0 0 0 0 0 0 0 0 0 0 0 0 0 0 0 0 0 0 0 0 0 0 0 0 0 0 0 0 0 0 0 0 0
0 0 0 0 0 0 0 0 0 0 0 0 0 0 0 0 0 0 0 0 0 0 0 0 0 0 0 0 0 0 0 0 0 0 0 0 0 0 0 0 0 0 0 0 0 0 0 0 0
0 0 0 0 0 0 0 0 0 0 0 0 0 0 0 0 0 0 0 0 0 0 0 1 1 1 1 1 0 0 0 0 0 0 0 0 0 0 0 0 0 0 0 0 0 0 0 0 0
0 0 0 0 0 0 0 0 0 0 0 0 0 0 0 0 0 0 0 0 0 0 0 0 1 1 1 1 1 1 1 0 0 0 0 0 0 0 0 0 0 0 0 0 0 0 0 0 0
0 0 0 0 0 0 0 0 0 0 0 0 0 0 0 0 0 0 0 0 0 0 0 0 1 1 1 1 1 1 1 1 1 1 0 0 0 0 0 0 0 0 0 0 0 0 0 0 0
0 0 0 0 0 0 0 0 0 0 0 0 0 0 0 0 0 0 0 0 0 0 0 1 1 1 1 1 1 1 1 1 1 1 1 1 0 0 0 0 0 0 0 0 0 0 0 0 0
0 0 0 0 0 0 0 0 0 0 0 0 0 0 0 0 0 0 0 0 0 0 0 1 1 1 1 1 1 1 1 1 1 1 1 1 0 0 0 0 0 0 0 0 0 0 0 0 0
0 0 0 0 0 0 0 0 0 0 0 0 0 0 0 0 0 0 0 0 0 0 0 0 1 1 1 1 1 1 1 1 1 1 1 1 1 1 0 0 0 0 0 0 0 0 0 0 0
Wind_Speed
7 5 2 1 2 3 3 3 6 7 6 7 10 10 9 7 5 5 2 7 9 8 6 9 11 11 11 11 11 11 11 11 11 10 9 10 10 10 10 10 10 10 10 10 10 10 11 11 11
4 3 0 1 3 3 2 4 9 9 9 9 11 11 9 7 6 7 4 7 9 8 6 8 11 12 11 11 11 11 11 11 10 10 9 9 9 9 9 10 10 10 10 10 10 10 10 10 10
4 2 0 2 1 3 3 3 8 10 9 8 7 6 6 5 5 5 6 10 8 7 6 8 12 12 11 11 10 10 10 10 10 9 9 9 9 8 9 9 9 10 10 10 9 9 9 9 8
2 1 1 2 2 2 5 5 7 10 9 8 8 6 4 3 4 7 10 10 9 7 6 8 12 11 11 10 9 9 9 9 9 9 9 8 8 8 8 9 9 9 9 9 9 8 8 8 7
1 2 3 2 2 3 5 8 9 10 6 9 10 7 4 3 8 11 11 10 9 7 5 6 10 10 10 9 9 9 8 8 9 9 8 8 8 8 8 8 8 8 8 8 8 8 7 7 7
2 3 3 2 3 4 5 8 12 13 11 10 9 7 3 4 9 9 10 9 8 8 6 6 9 9 9 9 8 8 8 8 8 8 8 7 7 7 7 7 7 8 8 8 7 7 7 6 6
3 2 1 2 3 5 6 6 9 10 9 6 7 6 3 4 7 9 9 9 8 7 6 4 4 5 7 8 7 7 7 8 7 8 8 7 7 7 6 7 7 7 8 8 7 7 6 6 6
3 3 1 1 4 4 4 5 7 9 8 8 6 6 4 5 7 9 9 8 7 6 4 4 2 2 2 3 6 7 7 8 7 7 7 6 6 6 6 5 6 7 7 7 7 6 6 6 6
2 3 1 1 3 3 5 9 7 7 9 6 6 7 9 10 10 10 9 7 6 5 3 3 3 2 2 2 4 5 5 6 6 5 6 4 2 2 2 3 5 6 7 6 6 6 5 5 5
3 3 3 3 4 5 6 7 7 7 10 9 10 10 11 10 10 10 9 7 5 4 3 3 3 2 2 2 2 1 2 2 2 2 2 2 1 1 2 2 5 5 5 5 4 4 4 3 2
3 3 2 2 5 6 7 6 6 9 8 11 13 13 11 10 9 9 8 6 6 5 4 3 2 2 2 1 2 1 1 1 2 2 2 2 1 1 1 0 1 1 2 1 1 2 1 1 1
3 2 3 3 4 5 5 6 7 7 8 12 13 13 11 10 8 8 7 6 5 4 3 2 2 2 2 2 2 2 1 1 1 2 2 2 1 1 1 1 1 1 1 1 1 1 1 1 1
3 1 2 4 5 6 8 8 9 9 12 13 13 12 11 10 8 7 7 6 5 4 3 2 2 2 2 2 2 2 2 2 2 2 2 2 2 1 1 1 1 1 1 1 1 1 1 1 1
2 1 2 2 4 5 10 7 7 9 12 13 12 10 9 10 9 8 7 6 5 4 3 2 3 2 2 2 2 2 2 2 2 2 2 2 2 2 1 1 1 1 1 1 2 2 1 1 1
2 3 3 1 2 4 10 6 6 9 11 12 10 9 9 9 9 9 8 6 5 4 3 3 3 2 2 2 2 2 2 2 2 2 2 2 2 2 2 1 1 1 1 1 1 1 1 1 1
2 3 1 3 2 3 7 5 6 8 11 10 9 9 9 8 9 8 8 6 5 5 4 3 3 2 1 1 1 2 2 2 2 2 2 2 2 3 2 1 1 1 1 1 2 1 1 1 1
3 1 2 2 1 2 5 5 7 8 10 9 8 8 8 8 8 8 8 7 6 6 5 3 2 2 2 2 2 2 2 1 1 1 2 2 2 3 2 1 1 1 1 1 2 2 2 1 1
4 3 3 2 2 3 3 3 6 8 9 9 8 8 8 9 9 9 8 8 7 5 5 4 3 2 2 2 2 1 1 1 1 1 1 2 2 2 2 2 1 2 2 1 1 2 1 1 1
5 3 2 2 3 5 4 4 5 6 7 8 8 9 9 9 8 8 8 8 7 5 5 4 3 2 2 1 1 1 1 1 1 1 2 2 3 3 3 2 2 2 2 2 2 2 2 1 1
4 3 2 2 2 5 3 2 2 5 8 8 9 9 9 8 7 7 7 7 6 6 5 4 4 3 3 2 2 2 2 1 1 1 1 2 2 3 3 3 2 2 2 2 2 2 1 0 1
2 3 4 4 3 5 5 4 2 2 3 4 7 7 7 10 10 9 9 8 7 6 6 5 4 4 3 2 2 1 1 1 1 0 1 1 2 3 3 3 3 2 3 2 2 3 3 2 0
1 3 7 6 5 1 3 0 5 4 2 4 5 6 7 7 8 8 9 9 9 8 6 5 5 4 3 3 2 3 2 2 2 2 1 1 2 3 3 3 3 2 2 2 3 2 2 3 2
4 4 6 5 4 3 2 2 6 1 3 5 6 8 8 8 9 10 10 10 9 8 7 5 5 4 3 3 3 3 2 2 1 1 1 1 1 2 3 3 3 2 2 2 2 2 2 2 2
7 6 6 6 5 2 3 3 5 4 8 6 6 7 9 8 8 8 8 8 7 7 6 6 5 4 3 3 3 3 3 3 2 2 1 1 1 1 2 3 2 2 2 2 2 2 2 1 1
6 7 4 5 4 3 2 2 7 7 7 9 9 8 8 8 7 7 7 8 7 7 7 7 6 5 4 4 3 4 4 4 4 3 3 2 1 1 2 3 2 2 2 2 1 2 2 1 1
4 9 7 4 3 3 2 2 6 4 4 5 6 6 7 7 7 7 9 9 9 9 8 7 7 6 5 4 4 3 4 3 2 3 3 3 2 2 3 3 3 2 2 2 2 1 1 1 1
3 2 7 7 2 1 2 3 5 2 3 4 5 5 6 6 6 6 7 7 7 7 7 7 7 5 5 5 4 3 3 3 3 2 2 2 2 2 2 3 3 3 3 3 3 2 1 1 1
5 6 6 6 4 1 2 2 4 2 3 3 4 6 6 6 5 5 5 6 6 6 6 6 6 6 5 4 4 3 4 4 3 2 2 2 2 2 3 2 3 3 3 3 3 2 1 1 1
3 3 5 5 6 6 2 6 5 7 7 6 5 5 5 6 6 6 5 5 5 5 4 5 5 4 4 4 4 3 3 3 3 3 3 3 2 3 3 3 3 3 2 3 3 2 2 2 2
4 4 6 5 2 4 4 6 2 6 5 5 4 4 5 5 5 5 5 4 4 4 4 4 4 4 4 4 3 3 3 3 3 3 3 3 3 2 3 3 3 3 3 3 3 3 3 3 3
Wind_Direction
158 159 169 177 44 51 54 66 85 76 67 62 73 78 76 66 94 125 178 144 138 140 147 146 138 130 123 119 118 115 113 113 113 111 112 114 112 113 117 120 124 127 129 130 130 131 133 134 136
152 155 193 32 63 69 58 87 87 89 111 103 80 78 74 67 84 114 135 145 141 140 145 144 140 133 126 122 120 118 115 115 114 114 115 116 114 114 117 120 125 128 130 132 132 133 135 136 137
161 168 74 39 68 124 120 107 105 100 96 91 86 66 74 95 108 135 155 147 134 132 141 145 137 132 130 126 123 121 119 119 119 119 118 118 117 117 121 123 126 130 133 134 135 138 141 141 140
153 103 28 56 77 129 134 131 111 102 79 70 87 67 60 97 127 140 141 138 129 132 140 141 138 134 132 130 126 122 120 120 122 123 121 122 122 121 122 127 130 131 136 138 141 145 145 146 148
104 84 54 54 90 105 113 118 109 100 89 84 88 90 65 58 110 124 131 133 134 135 136 138 139 139 136 133 130 126 126 128 127 126 126 128 128 127 126 128 130 132 137 140 142 148 148 151 155
62 59 61 70 85 94 94 103 103 102 108 103 98 99 79 102 113 123 130 131 134 135 135 137 142 144 143 141 138 134 133 135 135 134 133 136 136 134 132 131 132 138 142 145 147 147 148 150 153
103 91 131 133 93 95 110 110 109 116 115 113 117 101 104 108 120 123 123 126 123 126 128 131 140 147 152 152 147 142 140 137 138 135 136 141 143 141 137 138 144 147 149 152 154 155 155 157 159
155 105 28 67 94 87 92 95 106 112 107 118 115 116 135 143 122 107 107 110 111 114 117 121 121 133 150 157 153 149 139 136 138 140 141 145 147 147 143 142 150 152 152 156 157 159 160 162 166
115 79 122 178 129 121 106 95 92 87 101 97 88 109 130 127 115 102 98 95 101 108 110 119 122 133 146 151 159 157 148 144 148 150 148 145 143 150 151 150 156 161 160 161 161 160 161 169 172
113 123 198 191 152 140 119 113 120 101 96 96 96 103 117 116 112 112 114 114 113 122 126 122 120 132 139 155 136 135 134 136 134 128 138 127 126 142 147 174 174 170 166 165 162 154 161 164 152
131 155 171 143 126 122 106 98 104 114 116 132 133 134 127 120 116 119 120 123 130 134 124 119 124 121 129 128 133 129 112 113 114 124 127 124 127 126 107 119 180 179 180 168 158 140 144 145 152
127 163 160 138 120 113 117 112 98 109 135 140 138 136 131 127 126 130 130 130 128 122 125 129 132 116 121 126 143 145 138 130 131 145 145 137 135 123 126 147 166 153 159 146 139 128 137 148 163
75 60 75 127 113 106 105 110 113 118 127 130 130 130 134 133 133 134 134 130 122 119 119 113 99 103 113 120 137 137 145 140 150 144 150 139 141 158 165 166 153 160 151 154 158 154 146 161 170
175 109 69 115 117 114 110 110 107 136 133 130 132 134 142 140 139 134 131 132 134 134 130 119 107 101 100 109 115 127 131 134 133 139 144 151 153 159 157 143 144 158 166 155 157 158 152 153 145
96 58 23 78 133 135 111 95 134 150 137 137 141 143 146 143 138 143 150 149 148 145 140 143 142 109 98 106 118 119 126 132 136 147 150 158 161 165 164 150 168 187 168 143 126 109 116 138 130
49 53 10 266 175 160 111 137 170 157 143 146 151 151 151 150 151 153 154 150 147 146 149 154 140 126 113 110 107 100 115 133 140 141 153 163 161 152 143 151 181 177 148 137 132 126 115 109 104
10 91 233 255 211 145 121 158 176 164 150 155 159 158 156 155 158 161 160 156 154 154 151 149 136 138 145 129 105 100 112 131 142 139 165 176 163 151 141 146 166 143 127 132 145 121 125 120 112
222 199 213 194 212 125 121 156 164 166 160 163 167 164 165 167 174 169 165 161 159 155 150 150 146 149 150 128 96 87 92 123 136 155 179 171 154 147 148 146 141 127 118 113 125 131 129 140 145
190 185 190 177 141 106 118 138 167 169 168 170 173 173 174 179 176 164 163 160 155 150 148 150 147 155 140 128 135 137 158 181 190 203 182 164 158 160 153 148 139 135 135 155 158 133 126 105 113
178 149 127 95 97 98 105 97 186 178 189 183 175 175 175 172 165 166 164 161 163 164 161 158 159 161 157 161 163 169 166 179 187 215 185 167 159 167 163 156 156 151 141 144 143 132 126 139 126
152 161 158 151 84 61 78 8 304 244 186 179 173 169 170 174 172 172 170 170 169 171 173 169 172 170 165 153 124 104 74 50 55 196 237 207 172 168 166 163 160 159 154 162 169 162 150 159 215
196 192 144 135 110 118 116 140 277 236 212 196 180 170 177 181 173 175 174 176 178 180 176 170 173 173 169 154 145 153 159 177 212 205 209 211 179 171 164 156 158 162 156 166 182 170 164 150 174
170 142 120 129 120 80 52 115 277 230 208 212 188 176 182 188 182 185 184 184 183 178 175 173 172 177 174 166 168 166 179 198 204 177 171 183 180 174 165 162 162 170 173 180 177 157 145 150 164
128 74 51 55 69 58 240 158 265 225 210 203 194 180 183 184 184 187 185 178 178 174 172 171 172 182 181 178 177 177 184 186 167 179 185 197 187 186 187 175 171 175 176 184 181 159 152 159 152
98 88 39 13 22 260 247 167 247 234 201 190 188 185 176 174 182 187 183 180 178 176 178 177 176 185 187 183 189 192 193 186 187 193 195 190 185 203 212 192 186 187 185 180 170 161 158 160 164
168 137 150 175 205 272 328 230 260 237 186 160 160 167 163 167 182 187 188 184 181 180 179 179 183 191 191 190 199 200 195 194 203 202 198 196 200 205 199 184 180 177 172 177 164 156 167 149 173
131 145 153 129 123 76 295 303 319 59 97 118 128 137 149 157 169 182 182 178 177 178 179 183 184 189 193 196 196 197 197 196 203 203 197 205 206 197 185 177 177 177 168 166 155 148 168 152 166
137 142 92 108 135 165 303 261 233 205 164 153 148 161 159 150 143 142 152 161 168 175 175 171 177 184 186 186 194 197 205 206 198 187 191 198 205 191 179 183 183 181 172 165 159 162 176 165 202
65 76 100 112 140 144 198 264 225 186 172 164 165 166 156 152 156 153 153 152 149 154 161 167 171 176 183 190 195 196 199 197 188 188 195 194 195 183 184 191 188 184 177 171 163 171 177 183 217
133 142 134 134 185 144 154 269 305 156 153 146 142 141 143 146 151 149 145 135 129 143 157 168 172 177 192 195 192 195 198 191 189 197 200 186 181 190 189 185 184 192 188 178 175 187 185 185 205